Regional Weather Roundup
Issued by NWS Jackson, KY

Home | Current Version | Previous Version | Graphics & Text | Print | Product List | Glossary On
Versions: 1 2 3 4 5 6 7 8 9 10 11 12 13 14 15 16 17 18 19 20 21 22 23 24 25 26 27 28 29 30 31 32 33 34 35 36 37 38 39 40 41 42 43 44 45 46 47 48 49 50
000
ASUS43 KJKL 120310
RWRJKL

EAST KENTUCKY HOURLY WEATHER ROUNDUP
NATIONAL WEATHER SERVICE JACKSON KY
1000 PM EST MON DEC 11 2017

NOTE: "FAIR" INDICATES FEW OR NO CLOUDS BELOW 12,000 FEET WITH
NO SIGNIFICANT WEATHER AND/OR OBSTRUCTIONS TO VISIBILITY.

* THESE REPORTS ARE NOT UNDER NWS QUALITY CONTROL AND MAY NOT
  REPORT WEATHER SUCH AS PRECIPITATION AND FOG.

KYZ079-080-083-085-087-088-110-112-115-119-120-120400
...EASTERN KENTUCKY...

CITY           SKY/WX    TMP DP  RH WIND       PRES   REMARKS
JACKSON        CLOUDY    49  29  46 SW6       29.75F
LONDON         PTCLDY    50  29  44 SW12G21   29.79F
SOMERSET*      CLEAR     52  28  40 W14G25    29.81S
MONTICELLO*    MOCLDY    52  31  44 SW22G29   29.83S
WILLIAMSBURG*  PTCLDY    50  30  46 SW8G21    29.82R
MIDDLESBORO*   PTCLDY    48  32  54 SW7       29.85S
HARLAN APT*    PTCLDY    45  30  57 CALM      29.83F
PIKE CO APT*     N/A     49  28  45 S7        29.76F
BIG SANDY APT* CLOUDY    50  29  44 SW8       29.75F
MOREHEAD APT*  CLOUDY    50  27  40 SW14G24   29.73F
$$

KYZ035-036-041-042-044-050-067-078-099-120400
...CENTRAL KENTUCKY...

CITY           SKY/WX    TMP DP  RH WIND       PRES   REMARKS
MT STERLING*   CLOUDY    48  32  53 W9G17     29.74S
FLEMING/MASON* CLEAR     46  31  55 W16G24    29.72R
DANVILLE*      PTCLDY    48  30  49 W13G22    29.78R
LEXINGTON      PTCLDY    48  31  51 W15       29.76R
FRANKFORT      MOCLDY    50  26  39 W13G23    29.75R
LOUISVILLE     PTCLDY    48  27  44 W13G24    29.79R
LEBANON*         N/A     48  30  49 W13G20    29.81R
GLASGOW*       PTCLDY    49  31  48 W9G17     29.85R
BOWLING GREEN  PTCLDY    52  28  39 NW9G22    29.87R
$$

KYZ091>093-OHZ055-061-077-WVZ005-015-034-035-042-120400
...SOUTHERN OHIO/WEST VIRGINIA...

CITY           SKY/WX    TMP DP  RH WIND       PRES   REMARKS
COVINGTON      CLEAR     45  28  51 W16G24    29.70R
COLUMBUS       MOCLDY    37  26  64 SE7       29.65F WCI  32
DAYTON         CLOUDY    37  30  75 SW12      29.65F WCI  29
WILMINGTON     CLOUDY    39  31  72 SW14      29.66S WCI  31
HUNTINGTON     CLOUDY    49  26  41 SW10      29.71F
CHARLESTON     CLOUDY    41  26  55 CALM      29.73F
PINEVILLE*       N/A     34  31  87 MISG      29.84F
BECKLEY        CLOUDY    44  24  45 SW15      29.78S
BLUEFIELD      CLEAR     44  24  45 SW9G18    29.80F
LOGAN CO APT*    N/A     48  27  43 VRB5G13   29.76F
$$

VAZ002-007-008-TNZ017-027-036-066-071-120400
...SOUTHWEST VIRGINIA/EAST TENNESSEE...

CITY           SKY/WX    TMP DP  RH WIND       PRES   REMARKS
WISE*          PTCLDY    45  30  57 SW17G28   29.82F
JONESVILLE*      N/A     32  28  86 CALM      29.88F
ABINGDON*      CLOUDY    35  28  78 CALM      29.85F
BRISTOL        CLOUDY    33  29  85 N3        29.87F
MORRISTOWN*    CLEAR     48  30  49 W9        29.87R
SEVIERVILLE*   CLEAR     37  32  81 VRB3      29.87S
KNOXVILLE      MOCLDY    49  33  54 SW16      29.87S
LAFOLLETTE*    CLEAR     46  32  57 SW12      29.88F
OAK RIDGE      CLEAR     45  34  65 CALM      29.91S
CROSSVILLE     PTCLDY    45  29  53 SW8       29.88F
NASHVILLE      CLOUDY    54  30  40 SW10      29.87R
$$

...KEY TO REMARKS...
VSB - VISIBILITY IN MILES
WCI - WIND CHILL INDEX
HX  - HEAT INDEX

$$



USA.gov is the U.S. government's official web portal to all federal, state and local government web resources and services.